Location: Unspecified
(0.0000°N, 0.0000°E)
Time: 16:29:09
(UTC+00:00)

Vanguard 3 - Pass Details

Date: 05 February 2023
Orbit: 509 x 3249 km, 33.3° (Epoch: 20 March)

Event Time Altitude Azimuth Distance (km) Brightness Sun altitude
Rises 02:55:42 0° 299° (WNW) 7,099 - -47.0°
Reaches altitude 10° 03:00:26 10° 297° (WNW) 6,165 - -45.9°
Exits shadow 03:18:26 64° 242° (WSW) 3,200 9.7 -41.8°
Maximum altitude 03:20:10 66° 218° (SW) 3,096 9.7 -41.4°
Drops below altitude 10° 03:34:28 10° 138° (SE) 4,633 11.6 -38.0°
Sets 03:37:30 0° 134° (SE) 5,324 12.1 -37.3°
